Time,TemperatureF,DewpointF,PressureIn,WindDirection,WindDirectionDegrees,WindSpeedMPH,WindSpeedGustMPH,Humidity,HourlyPrecipIn,Conditions,Clouds,dailyrainin,SolarRadiationWatts/m^2,SoftwareType,DateUTC
2013-01-21 00:01:00,30.1,8.7,29.90,NNW,347,3.5,3.7,40,0.00,CLR,,0.00,0.0,WeatherDisplay:10.37,2013-01-21 05:01:00,
2013-01-21 00:03:00,30.0,8.6,29.90,NNW,339,4.6,4.6,40,0.00,CLR,,0.00,0.0,WeatherDisplay:10.37,2013-01-21 05:03:00,
2013-01-21 00:08:00,30.0,8.0,29.90,NW,313,11.5,11.5,39,0.00,CLR,,0.00,0.0,WeatherDisplay:10.37,2013-01-21 05:08:00,
2013-01-21 00:09:00,30.0,8.0,29.90,WNW,301,11.5,11.5,39,0.00,CLR,,0.00,0.0,WeatherDisplay:10.37,2013-01-21 05:09:00,
2013-01-21 00:14:00,29.8,8.4,29.90,NNW,340,11.0,11.0,40,0.00,CLR,,0.00,0.0,WeatherDisplay:10.37,2013-01-21 05:14:00,
2013-01-21 00:17:00,29.8,8.4,29.90,WNW,287,3.5,3.5,40,0.00,SCT,,0.00,0.0,WeatherDisplay:10.37,2013-01-21 05:17:00,
2013-01-21 00:22:00,29.7,8.3,29.90,WNW,296,8.1,8.1,40,0.00,SCT,,0.00,0.0,WeatherDisplay:10.37,2013-01-21 05:22:00,
2013-01-21 00:27:00,29.7,8.3,29.90,NNW,343,8.1,8.1,40,0.00,SCT,,0.00,0.0,WeatherDisplay:10.37,2013-01-21 05:27:00,
2013-01-21 00:33:00,29.5,8.1,29.91,West,265,3.5,3.5,40,0.00,SCT,,0.00,0.0,WeatherDisplay:10.37,2013-01-21 05:33:00,
2013-01-21 00:39:00,29.5,8.7,29.91,NW,319,4.6,4.6,41,0.00,SCT,,0.00,0.0,WeatherDisplay:10.37,2013-01-21 05:39:00,
2013-01-21 00:44:00,29.4,9.1,29.92,NW,309,0.0,0.1,42,0.00,SCT,,0.00,0.0,WeatherDisplay:10.37,2013-01-21 05:44:00,
2013-01-21 00:49:00,29.4,9.1,29.92,WNW,288,4.6,4.6,42,0.00,SCT,,0.00,0.0,WeatherDisplay:10.37,2013-01-21 05:49:00,
2013-01-21 00:54:00,29.3,9.0,29.92,WNW,292,1.1,1.1,42,0.00,SCT,,0.00,0.0,WeatherDisplay:10.37,2013-01-21 05:54:00,
2013-01-21 00:59:00,29.3,9.0,29.92,NW,320,2.3,0.0,42,0.00,SCT,,0.00,0.0,WeatherDisplay:10.37,2013-01-21 05:59:00,
2013-01-21 01:04:00,29.1,9.4,29.92,NNW,335,4.6,4.6,43,0.00,SCT,,0.00,0.0,WeatherDisplay:10.37,2013-01-21 06:04:00,
2013-01-21 01:10:00,29.0,9.8,29.92,NNW,336,3.5,3.5,44,0.00,SCT,,0.00,0.0,WeatherDisplay:10.37,2013-01-21 06:10:00,
2013-01-21 01:15:00,29.0,9.8,29.92,WSW,251,3.5,3.5,44,0.00,SCT,,0.00,0.0,WeatherDisplay:10.37,2013-01-21 06:15:00,
2013-01-21 01:20:00,28.8,10.1,29.92,North,0,2.3,2.3,45,0.00,BKN,,0.00,0.0,WeatherDisplay:10.37,2013-01-21 06:20:00,
2013-01-21 01:25:00,28.7,10.0,29.92,WNW,294,2.3,2.3,45,0.00,BKN,,0.00,0.0,WeatherDisplay:10.37,2013-01-21 06:25:00,
2013-01-21 01:30:00,28.7,10.5,29.94,NNW,337,3.5,3.5,46,0.00,BKN,,0.00,0.0,WeatherDisplay:10.37,2013-01-21 06:30:00,
2013-01-21 01:35:00,28.5,10.3,29.94,North,349,3.5,3.5,46,0.00,BKN,,0.00,0.0,WeatherDisplay:10.37,2013-01-21 06:35:00,
2013-01-21 01:40:00,28.4,10.2,29.94,NW,304,2.0,2.0,46,0.00,BKN,,0.00,0.0,WeatherDisplay:10.37,2013-01-21 06:40:00,
2013-01-21 01:45:00,28.4,10.2,29.93,NW,311,6.9,0.0,46,0.00,BKN,,0.00,0.0,WeatherDisplay:10.37,2013-01-21 06:45:00,
2013-01-21 01:50:00,28.2,10.0,29.93,North,359,3.5,3.5,46,0.00,BKN,,0.00,0.0,WeatherDisplay:10.37,2013-01-21 06:50:00,
2013-01-21 01:55:00,28.1,9.9,29.93,North,0,5.8,5.8,46,0.00,BKN,,0.00,0.0,WeatherDisplay:10.37,2013-01-21 06:55:00,
2013-01-21 02:00:00,28.1,9.9,29.94,SW,230,1.1,1.1,46,0.00,BKN,,0.00,0.0,WeatherDisplay:10.37,2013-01-21 07:00:00,
2013-01-21 02:05:00,28.1,9.9,29.94,NW,322,2.3,2.3,46,0.00,BKN,,0.00,0.0,WeatherDisplay:10.37,2013-01-21 07:05:00,
2013-01-21 02:10:00,28.1,10.4,29.94,WNW,289,2.3,0.0,47,0.00,BKN,,0.00,0.0,WeatherDisplay:10.37,2013-01-21 07:10:00,
2013-01-21 02:15:00,27.9,9.8,29.94,North,349,3.5,3.5,46,0.00,BKN,,0.00,0.0,WeatherDisplay:10.37,2013-01-21 07:15:00,
2013-01-21 02:20:00,27.9,9.8,29.94,NNW,329,1.1,1.8,46,0.00,BKN,,0.00,0.0,WeatherDisplay:10.37,2013-01-21 07:20:00,
2013-01-21 02:25:00,27.8,9.7,29.94,NW,316,1.1,0.0,46,0.00,BKN,,0.00,0.0,WeatherDisplay:10.37,2013-01-21 07:25:00,
2013-01-21 02:30:00,27.8,9.7,29.94,North,356,2.3,2.3,46,0.00,BKN,,0.00,0.0,WeatherDisplay:10.37,2013-01-21 07:30:00,
2013-01-21 02:35:00,27.8,9.7,29.94,North,0,1.1,1.3,46,0.00,BKN,,0.00,0.0,WeatherDisplay:10.37,2013-01-21 07:35:00,
2013-01-21 02:40:00,27.6,9.5,29.94,West,275,0.0,0.2,46,0.00,BKN,,0.00,0.0,WeatherDisplay:10.37,2013-01-21 07:40:00,
2013-01-21 02:45:00,27.6,9.5,29.95,North,0,1.1,1.1,46,0.00,BKN,,0.00,0.0,WeatherDisplay:10.37,2013-01-21 07:45:00,
2013-01-21 02:50:00,27.6,10.0,29.95,WNW,302,0.0,0.1,47,0.00,BKN,,0.00,0.0,WeatherDisplay:10.37,2013-01-21 07:50:00,
2013-01-21 02:55:00,27.5,9.9,29.95,WNW,299,0.0,0.0,47,0.00,BKN,,0.00,0.0,WeatherDisplay:10.37,2013-01-21 07:55:00,
2013-01-21 03:00:00,27.5,10.4,29.95,NW,326,1.1,0.0,48,0.00,BKN,,0.00,0.0,WeatherDisplay:10.37,2013-01-21 08:00:00,
2013-01-21 03:05:00,27.5,9.4,29.95,North,353,3.5,3.5,46,0.00,BKN,,0.00,0.0,WeatherDisplay:10.37,2013-01-21 08:05:00,
2013-01-21 03:10:00,27.3,9.7,29.95,NW,304,1.1,1.1,47,0.00,BKN,,0.00,0.0,WeatherDisplay:10.37,2013-01-21 08:10:00,
2013-01-21 03:15:00,27.3,9.7,29.94,North,0,1.1,1.1,47,0.00,BKN,,0.00,0.0,WeatherDisplay:10.37,2013-01-21 08:15:00,
2013-01-21 03:20:00,27.2,9.1,29.94,NW,322,0.0,0.0,46,0.00,SCT,,0.00,0.0,WeatherDisplay:10.37,2013-01-21 08:20:00,
2013-01-21 03:25:00,27.2,9.6,29.94,NW,323,4.6,4.6,47,0.00,SCT,,0.00,0.0,WeatherDisplay:10.37,2013-01-21 08:25:00,
2013-01-21 03:30:00,27.0,9.4,29.94,NNW,344,2.3,2.3,47,0.00,SCT,,0.00,0.0,WeatherDisplay:10.37,2013-01-21 08:30:00,
2013-01-21 03:35:00,27.0,9.4,29.94,NNW,344,1.1,0.0,47,0.00,SCT,,0.00,0.0,WeatherDisplay:10.37,2013-01-21 08:35:00,
2013-01-21 03:40:00,27.0,9.9,29.94,NNW,342,0.0,0.0,48,0.00,SCT,,0.00,0.0,WeatherDisplay:10.37,2013-01-21 08:40:00,
2013-01-21 03:45:00,26.9,9.3,29.94,NNW,342,0.0,0.0,47,0.00,SCT,,0.00,0.0,WeatherDisplay:10.37,2013-01-21 08:45:00,
2013-01-21 03:50:00,26.9,9.8,29.94,NNW,342,1.1,0.0,48,0.00,SCT,,0.00,0.0,WeatherDisplay:10.37,2013-01-21 08:50:00,
2013-01-21 03:55:00,26.7,9.6,29.94,NNW,342,0.0,0.0,48,0.00,SCT,,0.00,0.0,WeatherDisplay:10.37,2013-01-21 08:55:00,
2013-01-21 04:00:00,26.7,9.6,29.94,NNW,342,1.1,0.0,48,0.00,SCT,,0.00,0.0,WeatherDisplay:10.37,2013-01-21 09:00:00,
2013-01-21 04:05:00,26.6,10.0,29.94,NNW,344,1.1,1.1,49,0.00,SCT,,0.00,0.0,WeatherDisplay:10.37,2013-01-21 09:05:00,
2013-01-21 04:10:00,26.6,10.0,29.94,NNW,339,1.1,0.0,49,0.00,SCT,,0.00,0.0,WeatherDisplay:10.37,2013-01-21 09:10:00,
2013-01-21 04:15:00,26.4,9.8,29.94,NW,322,1.1,1.1,49,0.00,SCT,,0.00,0.0,WeatherDisplay:10.37,2013-01-21 09:15:00,
2013-01-21 04:20:00,26.4,9.8,29.94,NW,313,1.1,1.1,49,0.00,BKN,,0.00,0.0,WeatherDisplay:10.37,2013-01-21 09:20:00,
2013-01-21 04:25:00,26.4,9.8,29.94,NNW,339,1.1,1.1,49,0.00,BKN,,0.00,0.0,WeatherDisplay:10.37,2013-01-21 09:25:00,
2013-01-21 04:30:00,26.4,9.8,29.93,NNW,328,1.1,1.1,49,0.00,BKN,,0.00,0.0,WeatherDisplay:10.37,2013-01-21 09:30:00,
2013-01-21 04:35:00,26.4,9.8,29.93,WNW,284,0.0,0.0,49,0.00,BKN,,0.00,0.0,WeatherDisplay:10.37,2013-01-21 09:35:00,
2013-01-21 04:40:00,26.4,10.3,29.93,NW,313,0.0,0.0,50,0.00,BKN,,0.00,0.0,WeatherDisplay:10.37,2013-01-21 09:40:00,
2013-01-21 04:45:00,26.4,9.8,29.93,NW,313,0.0,0.1,49,0.00,BKN,,0.00,0.0,WeatherDisplay:10.37,2013-01-21 09:45:00,
2013-01-21 04:50:00,26.4,9.8,29.93,NW,315,1.1,1.1,49,0.00,BKN,,0.00,0.0,WeatherDisplay:10.37,2013-01-21 09:50:00,
2013-01-21 04:55:00,26.4,9.8,29.93,NW,316,0.0,0.1,49,0.00,BKN,,0.00,0.0,WeatherDisplay:10.37,2013-01-21 09:55:00,
2013-01-21 05:00:00,26.4,9.8,29.93,NW,316,1.1,0.0,49,0.00,BKN,,0.00,0.0,WeatherDisplay:10.37,2013-01-21 10:00:00,
2013-01-21 05:05:00,26.4,9.8,29.93,NW,316,0.0,0.0,49,0.00,BKN,,0.00,0.0,WeatherDisplay:10.37,2013-01-21 10:05:00,
2013-01-21 05:10:00,26.3,9.7,29.93,NNW,332,1.1,1.1,49,0.00,BKN,,0.00,0.0,WeatherDisplay:10.37,2013-01-21 10:10:00,
2013-01-21 05:15:00,26.3,9.7,29.93,WNW,288,2.3,0.0,49,0.00,BKN,,0.00,0.0,WeatherDisplay:10.37,2013-01-21 10:15:00,
2013-01-21 05:20:00,26.3,9.7,29.93,WNW,289,0.0,0.0,49,0.00,BKN,,0.00,0.0,WeatherDisplay:10.37,2013-01-21 10:20:00,
2013-01-21 05:25:00,26.3,9.7,29.93,NW,326,0.0,0.0,49,0.00,BKN,,0.00,0.0,WeatherDisplay:10.37,2013-01-21 10:25:00,
2013-01-21 05:30:00,26.3,9.7,29.93,WNW,298,1.1,1.1,49,0.00,BKN,,0.00,0.0,WeatherDisplay:10.37,2013-01-21 10:30:00,
2013-01-21 05:35:00,26.1,9.5,29.93,NW,325,2.3,2.3,49,0.00,BKN,,0.00,0.0,WeatherDisplay:10.37,2013-01-21 10:35:00,
2013-01-21 05:40:00,26.1,9.5,29.93,NW,325,1.1,1.1,49,0.00,BKN,,0.00,0.0,WeatherDisplay:10.37,2013-01-21 10:40:00,
2013-01-21 05:45:00,26.1,9.5,29.93,NW,309,2.3,0.0,49,0.00,BKN,,0.00,0.0,WeatherDisplay:10.37,2013-01-21 10:45:00,
2013-01-21 05:50:00,26.0,9.4,29.93,NNW,337,2.3,2.3,49,0.00,BKN,,0.00,0.0,WeatherDisplay:10.37,2013-01-21 10:50:00,
2013-01-21 05:55:00,26.0,9.4,29.93,NNW,337,0.0,0.0,49,0.00,BKN,,0.00,0.0,WeatherDisplay:10.37,2013-01-21 10:55:00,
2013-01-21 06:00:00,26.0,9.4,29.93,NNW,330,2.3,2.3,49,0.00,BKN,,0.00,0.0,WeatherDisplay:10.37,2013-01-21 11:00:00,
2013-01-21 06:05:00,26.0,9.4,29.93,NW,305,0.0,0.0,49,0.00,BKN,,0.00,0.0,WeatherDisplay:10.37,2013-01-21 11:05:00,
2013-01-21 06:10:00,25.8,9.2,29.93,NW,305,1.1,0.0,49,0.00,BKN,,0.00,0.0,WeatherDisplay:10.37,2013-01-21 11:10:00,
2013-01-21 06:15:00,25.8,9.7,29.92,WNW,287,1.1,1.1,50,0.00,BKN,,0.00,0.0,WeatherDisplay:10.37,2013-01-21 11:15:00,
2013-01-21 06:20:00,25.8,9.2,29.92,NW,304,0.0,0.0,49,0.00,BKN,,0.00,0.0,WeatherDisplay:10.37,2013-01-21 11:20:00,
2013-01-21 06:25:00,25.8,9.7,29.92,WNW,296,0.0,0.0,50,0.00,BKN,,0.00,0.0,WeatherDisplay:10.37,2013-01-21 11:25:00,
2013-01-21 06:30:00,25.7,9.2,29.93,WNW,292,5.8,5.8,49,0.00,BKN,,0.00,0.0,WeatherDisplay:10.37,2013-01-21 11:30:00,
2013-01-21 06:35:00,25.7,9.6,29.93,NW,313,1.1,1.1,50,0.00,BKN,,0.00,0.0,WeatherDisplay:10.37,2013-01-21 11:35:00,
2013-01-21 06:40:00,25.6,9.1,29.93,NNW,336,0.0,0.0,49,0.00,BKN,,0.00,0.0,WeatherDisplay:10.37,2013-01-21 11:40:00,
2013-01-21 06:45:00,25.6,9.5,29.94,NNW,336,1.1,1.1,50,0.00,BKN,,0.00,0.0,WeatherDisplay:10.37,2013-01-21 11:45:00,
2013-01-21 06:50:00,25.4,9.3,29.94,NNW,336,1.1,1.1,50,0.00,BKN,,0.00,0.0,WeatherDisplay:10.37,2013-01-21 11:50:00,
2013-01-21 06:55:00,25.4,9.3,29.94,NNW,336,1.1,1.1,50,0.00,BKN,,0.00,0.0,WeatherDisplay:10.37,2013-01-21 11:55:00,
2013-01-21 07:00:00,25.4,9.3,29.94,NNW,336,0.0,0.0,50,0.00,BKN,,0.00,0.0,WeatherDisplay:10.37,2013-01-21 12:00:00,
2013-01-21 07:05:00,25.4,9.3,29.94,NNW,336,1.1,0.0,50,0.00,BKN,,0.00,0.0,WeatherDisplay:10.37,2013-01-21 12:05:00,
2013-01-21 07:10:00,25.4,9.3,29.94,NNW,336,1.1,1.1,50,0.00,BKN,,0.00,0.0,WeatherDisplay:10.37,2013-01-21 12:10:00,
2013-01-21 07:15:00,25.3,9.2,29.94,NNW,339,0.0,0.0,50,0.00,BKN,,0.00,0.0,WeatherDisplay:10.37,2013-01-21 12:15:00,
2013-01-21 07:20:00,25.3,9.2,29.94,NNW,339,1.1,1.1,50,0.00,BKN,,0.00,0.0,WeatherDisplay:10.37,2013-01-21 12:20:00,
2013-01-21 07:25:00,25.3,9.7,29.94,NNW,339,0.0,0.1,51,0.00,BKN,,0.00,0.0,WeatherDisplay:10.37,2013-01-21 12:25:00,
2013-01-21 07:30:00,25.3,9.2,29.94,NNW,339,0.0,0.0,50,0.00,BKN,,0.00,0.0,WeatherDisplay:10.37,2013-01-21 12:30:00,
2013-01-21 07:35:00,25.3,9.2,29.94,NNW,339,0.0,0.0,50,0.00,BKN,,0.00,5.0,WeatherDisplay:10.37,2013-01-21 12:35:00,
2013-01-21 07:40:00,25.4,9.3,29.94,NNW,339,0.0,0.0,50,0.00,BKN,,0.00,12.0,WeatherDisplay:10.37,2013-01-21 12:40:00,
2013-01-21 07:46:00,25.4,9.3,29.94,NNW,339,0.0,0.0,50,0.00,BKN,,0.00,16.0,WeatherDisplay:10.37,2013-01-21 12:46:00,
2013-01-21 07:51:00,25.4,9.3,29.94,NNW,339,0.0,0.0,50,0.00,BKN,,0.00,26.0,WeatherDisplay:10.37,2013-01-21 12:51:00,
2013-01-21 07:56:00,25.6,9.5,29.94,NNW,339,0.0,0.0,50,0.00,BKN,,0.00,37.0,WeatherDisplay:10.37,2013-01-21 12:56:00,
2013-01-21 08:01:00,25.7,9.6,29.95,NNW,339,0.0,0.0,50,0.00,BKN,,0.00,48.0,WeatherDisplay:10.37,2013-01-21 13:01:00,
2013-01-21 08:06:00,25.8,9.7,29.95,NNW,339,0.0,0.0,50,0.00,BKN,,0.00,49.0,WeatherDisplay:10.37,2013-01-21 13:06:00,
2013-01-21 08:11:00,26.0,9.4,29.95,NNW,339,1.1,0.0,49,0.00,BKN,,0.00,51.0,WeatherDisplay:10.37,2013-01-21 13:11:00,
2013-01-21 08:16:00,26.1,10.0,29.95,NNW,339,0.0,0.0,50,0.00,BKN,,0.00,48.0,WeatherDisplay:10.37,2013-01-21 13:16:00,
2013-01-21 08:21:00,26.3,9.7,29.95,NNW,339,0.0,0.0,49,0.00,BKN,,0.00,49.0,WeatherDisplay:10.37,2013-01-21 13:21:00,
2013-01-21 08:26:00,26.4,9.3,29.95,NNW,339,1.0,0.0,48,0.00,BKN,,0.00,53.0,WeatherDisplay:10.37,2013-01-21 13:26:00,
2013-01-21 08:31:00,26.6,9.1,29.95,NNW,339,0.0,0.0,47,0.00,BKN,,0.00,63.0,WeatherDisplay:10.37,2013-01-21 13:31:00,
2013-01-21 08:36:00,26.6,8.6,29.95,NNW,330,0.0,0.0,46,0.00,BKN,,0.00,67.0,WeatherDisplay:10.37,2013-01-21 13:36:00,
2013-01-21 08:41:00,26.7,9.1,29.95,NNW,330,0.0,0.0,47,0.00,BKN,,0.00,72.0,WeatherDisplay:10.37,2013-01-21 13:41:00,
2013-01-21 08:46:00,26.7,9.1,29.95,NNW,330,1.1,1.1,47,0.00,BKN,,0.00,76.0,WeatherDisplay:10.37,2013-01-21 13:46:00,
2013-01-21 08:51:00,27.0,9.4,29.95,NNW,330,0.0,0.0,47,0.00,BKN,,0.00,77.0,WeatherDisplay:10.37,2013-01-21 13:51:00,
2013-01-21 08:56:00,27.2,9.6,29.95,NNW,330,0.0,0.0,47,0.00,BKN,,0.00,81.0,WeatherDisplay:10.37,2013-01-21 13:56:00,
2013-01-21 09:01:00,27.3,9.2,29.95,NNW,330,0.0,0.0,46,0.00,BKN,,0.00,88.0,WeatherDisplay:10.37,2013-01-21 14:01:00,
2013-01-21 09:06:00,27.5,9.4,29.95,NNW,330,0.0,0.0,46,0.00,BKN,,0.00,83.0,WeatherDisplay:10.37,2013-01-21 14:06:00,
2013-01-21 09:11:00,27.6,9.5,29.95,NNW,330,1.1,0.0,46,0.00,BKN,,0.00,88.0,WeatherDisplay:10.37,2013-01-21 14:11:00,
2013-01-21 09:16:00,27.8,9.2,29.95,NNW,330,0.0,0.0,45,0.00,OVC,,0.00,90.0,WeatherDisplay:10.37,2013-01-21 14:16:00,
2013-01-21 09:21:00,27.9,9.3,29.95,NNW,330,0.0,0.0,45,0.00,OVC,,0.00,90.0,WeatherDisplay:10.37,2013-01-21 14:21:00,
2013-01-21 09:26:00,27.9,7.7,29.95,NNW,330,0.0,0.0,42,0.00,OVC,,0.00,86.0,WeatherDisplay:10.37,2013-01-21 14:26:00,
2013-01-21 09:31:00,27.9,7.2,29.95,NNW,330,0.0,0.0,41,0.00,OVC,,0.00,93.0,WeatherDisplay:10.37,2013-01-21 14:31:00,
2013-01-21 09:36:00,27.9,7.7,29.95,NNW,330,0.0,0.0,42,0.00,OVC,,0.00,99.0,WeatherDisplay:10.37,2013-01-21 14:36:00,
2013-01-21 09:41:00,27.9,8.3,29.95,NNW,330,0.0,0.0,43,0.00,OVC,,0.00,113.0,WeatherDisplay:10.37,2013-01-21 14:41:00,
2013-01-21 09:46:00,28.1,7.9,29.94,NNW,330,0.0,0.0,42,0.00,OVC,,0.00,135.0,WeatherDisplay:10.37,2013-01-21 14:46:00,
2013-01-21 09:51:00,28.2,8.0,29.94,NNW,330,1.1,0.0,42,0.00,OVC,,0.00,144.0,WeatherDisplay:10.37,2013-01-21 14:51:00,
2013-01-21 09:56:00,28.4,7.7,29.94,NNW,330,0.0,0.0,41,0.00,OVC,,0.00,160.0,WeatherDisplay:10.37,2013-01-21 14:56:00,
2013-01-21 10:01:00,28.5,7.2,29.93,NNW,330,0.0,0.1,40,0.00,OVC,,0.00,194.0,WeatherDisplay:10.37,2013-01-21 15:01:00,
2013-01-21 10:06:00,28.5,7.2,29.93,NNW,330,0.0,0.0,40,0.00,OVC,,0.00,206.0,WeatherDisplay:10.37,2013-01-21 15:06:00,
2013-01-21 10:11:00,28.5,7.2,29.93,NNW,330,0.0,0.0,40,0.00,OVC,,0.00,215.0,WeatherDisplay:10.37,2013-01-21 15:11:00,
2013-01-21 10:16:00,28.5,6.6,29.93,NNW,330,1.1,0.0,39,0.00,OVC,,0.00,209.0,WeatherDisplay:10.37,2013-01-21 15:16:00,
2013-01-21 10:21:00,28.4,7.1,29.93,NNW,330,0.0,0.0,40,0.00,OVC,,0.00,208.0,WeatherDisplay:10.37,2013-01-21 15:21:00,
2013-01-21 10:26:00,28.7,7.9,29.93,SW,227,1.1,0.0,41,0.00,OVC,,0.00,183.0,WeatherDisplay:10.37,2013-01-21 15:26:00,
2013-01-21 10:31:00,28.5,7.2,29.93,SW,219,1.1,1.1,40,0.00,OVC,,0.00,178.0,WeatherDisplay:10.37,2013-01-21 15:31:00,
2013-01-21 10:36:00,28.5,7.2,29.93,WSW,241,0.0,0.0,40,0.00,OVC,,0.00,194.0,WeatherDisplay:10.37,2013-01-21 15:36:00,
2013-01-21 10:41:00,28.8,7.5,29.93,South,189,2.3,2.3,40,0.00,OVC,,0.00,209.0,WeatherDisplay:10.37,2013-01-21 15:41:00,
2013-01-21 10:46:00,28.8,6.3,29.92,WSW,240,0.0,0.0,38,0.00,OVC,,0.00,222.0,WeatherDisplay:10.37,2013-01-21 15:46:00,
2013-01-21 10:51:00,28.7,6.3,29.92,SW,233,1.1,1.1,38,0.00,OVC,,0.00,229.0,WeatherDisplay:10.37,2013-01-21 15:51:00,
2013-01-21 10:56:00,28.7,6.8,29.92,SW,219,1.1,1.1,39,0.00,OVC,,0.00,238.0,WeatherDisplay:10.37,2013-01-21 15:56:00,
2013-01-21 11:01:00,28.8,6.9,29.92,SSW,212,1.1,1.1,39,0.00,OVC,,0.00,252.0,WeatherDisplay:10.37,2013-01-21 16:01:00,
2013-01-21 11:06:00,29.0,6.5,29.92,SW,222,1.1,1.1,38,0.00,OVC,,0.00,262.0,WeatherDisplay:10.37,2013-01-21 16:06:00,
2013-01-21 11:11:00,29.3,6.8,29.92,SW,230,1.1,1.1,38,0.00,OVC,,0.00,260.0,WeatherDisplay:10.37,2013-01-21 16:11:00,
2013-01-21 11:16:00,29.4,8.0,29.91,SW,227,1.1,1.1,40,0.00,OVC,,0.00,252.0,WeatherDisplay:10.37,2013-01-21 16:16:00,
2013-01-21 11:21:00,29.8,6.7,29.91,SW,220,1.1,1.1,37,0.00,OVC,,0.00,257.0,WeatherDisplay:10.37,2013-01-21 16:21:00,
2013-01-21 11:26:00,30.1,6.9,29.91,South,178,2.0,2.0,37,0.00,OVC,,0.00,262.0,WeatherDisplay:10.37,2013-01-21 16:26:00,
2013-01-21 11:31:00,30.3,7.7,29.89,SSW,209,4.6,4.6,38,0.00,OVC,,0.00,278.0,WeatherDisplay:10.37,2013-01-21 16:31:00,
2013-01-21 11:36:00,30.1,7.5,29.89,SW,230,2.3,2.3,38,0.00,OVC,,0.00,262.0,WeatherDisplay:10.37,2013-01-21 16:36:00,
2013-01-21 11:41:00,30.1,8.7,29.89,SSW,202,2.0,2.0,40,0.00,OVC,,0.00,230.0,WeatherDisplay:10.37,2013-01-21 16:41:00,
2013-01-21 11:46:00,30.1,8.7,29.88,SSW,196,2.3,2.3,40,0.00,OVC,,0.00,243.0,WeatherDisplay:10.37,2013-01-21 16:46:00,
2013-01-21 11:51:00,30.3,9.4,29.88,SW,230,2.3,2.3,41,0.00,OVC,,0.00,246.0,WeatherDisplay:10.37,2013-01-21 16:51:00,
2013-01-21 11:56:00,30.1,8.7,29.88,SSW,213,3.5,3.5,40,0.00,OVC,,0.00,234.0,WeatherDisplay:10.37,2013-01-21 16:56:00,
2013-01-21 12:01:00,30.3,8.8,29.87,SSW,196,3.5,3.5,40,0.00,OVC,,0.00,260.0,WeatherDisplay:10.37,2013-01-21 17:01:00,
2013-01-21 12:06:00,30.6,8.0,29.87,SSW,209,2.3,2.3,38,0.00,OVC,,0.00,276.0,WeatherDisplay:10.37,2013-01-21 17:06:00,
2013-01-21 12:11:00,30.6,8.5,29.87,SW,222,2.3,2.3,39,0.00,OVC,,0.00,246.0,WeatherDisplay:10.37,2013-01-21 17:11:00,
2013-01-21 12:16:00,30.6,8.5,29.85,WSW,241,2.3,2.3,39,0.00,OVC,,0.00,222.0,WeatherDisplay:10.37,2013-01-21 17:16:00,
2013-01-21 12:21:00,30.4,8.9,29.85,SSW,210,3.5,3.5,40,0.00,OVC,,0.00,165.0,WeatherDisplay:10.37,2013-01-21 17:21:00,
2013-01-21 12:26:00,30.4,8.9,29.85,WSW,239,2.3,2.3,40,0.00,OVC,,0.00,167.0,WeatherDisplay:10.37,2013-01-21 17:26:00,
2013-01-21 12:32:00,30.7,9.7,29.85,South,188,1.1,1.1,41,0.00,OVC,,0.00,153.0,WeatherDisplay:10.37,2013-01-21 17:32:00,
2013-01-21 12:37:00,30.4,9.5,29.85,SSW,209,2.3,2.3,41,0.00,OVC,,0.00,134.0,WeatherDisplay:10.37,2013-01-21 17:37:00,
2013-01-21 12:42:00,30.3,9.4,29.85,SW,222,2.3,2.3,41,0.00,OVC,,0.00,134.0,WeatherDisplay:10.37,2013-01-21 17:42:00,
2013-01-21 12:47:00,30.3,9.4,29.84,SW,224,2.3,2.3,41,0.00,OVC,,0.00,158.0,WeatherDisplay:10.37,2013-01-21 17:47:00,
2013-01-21 12:52:00,30.6,9.7,29.84,WSW,250,1.1,1.1,41,0.00,OVC,,0.00,157.0,WeatherDisplay:10.37,2013-01-21 17:52:00,
2013-01-21 12:57:00,30.4,8.9,29.84,SW,220,2.3,2.3,40,0.00,OVC,,0.00,153.0,WeatherDisplay:10.37,2013-01-21 17:57:00,
2013-01-21 13:02:00,30.6,9.7,29.83,SW,222,1.1,1.1,41,0.00,OVC,,0.00,146.0,WeatherDisplay:10.37,2013-01-21 18:02:00,
2013-01-21 13:07:00,30.7,9.2,29.83,SSW,213,3.5,3.5,40,0.00,OVC,,0.00,134.0,WeatherDisplay:10.37,2013-01-21 18:07:00,
2013-01-21 13:12:00,30.7,9.7,29.83,SW,227,3.5,3.5,41,0.00,OVC,,0.00,114.0,WeatherDisplay:10.37,2013-01-21 18:12:00,
2013-01-21 13:17:00,30.4,9.5,29.82,SW,220,2.3,2.3,41,0.00,OVC,,0.00,113.0,WeatherDisplay:10.37,2013-01-21 18:17:00,
2013-01-21 13:22:00,30.4,9.5,29.82,SW,226,2.3,2.3,41,0.00,OVC,,0.00,151.0,WeatherDisplay:10.37,2013-01-21 18:22:00,
2013-01-21 13:27:00,30.4,9.5,29.82,SSW,212,1.1,0.0,41,0.00,OVC,,0.00,171.0,WeatherDisplay:10.37,2013-01-21 18:27:00,
2013-01-21 13:32:00,30.6,9.7,29.81,SW,217,1.1,1.1,41,0.00,OVC,,0.00,188.0,WeatherDisplay:10.37,2013-01-21 18:32:00,
2013-01-21 13:37:00,30.6,9.7,29.81,SSW,202,3.5,3.5,41,0.00,OVC,,0.00,209.0,WeatherDisplay:10.37,2013-01-21 18:37:00,
2013-01-21 13:42:00,30.7,9.7,29.81,WSW,246,1.1,1.1,41,0.00,OVC,,0.00,197.0,WeatherDisplay:10.37,2013-01-21 18:42:00,
2013-01-21 13:47:00,30.7,9.7,29.81,SW,229,1.1,1.1,41,0.00,OVC,,0.00,194.0,WeatherDisplay:10.37,2013-01-21 18:47:00,
2013-01-21 13:52:00,30.9,10.5,29.81,NW,306,1.1,1.1,42,0.00,OVC,,0.00,181.0,WeatherDisplay:10.37,2013-01-21 18:52:00,
2013-01-21 13:57:00,31.3,10.3,29.81,SSW,202,3.5,3.5,41,0.00,OVC,,0.00,155.0,WeatherDisplay:10.37,2013-01-21 18:57:00,
2013-01-21 14:02:00,31.3,10.3,29.80,NW,309,2.3,2.3,41,0.00,OVC,,0.00,151.0,WeatherDisplay:10.37,2013-01-21 19:02:00,
2013-01-21 14:07:00,31.3,10.3,29.80,SW,234,2.3,2.3,41,0.00,OVC,,0.00,139.0,WeatherDisplay:10.37,2013-01-21 19:07:00,
2013-01-21 14:12:00,31.5,9.9,29.80,SW,229,1.1,1.1,40,0.00,OVC,,0.00,134.0,WeatherDisplay:10.37,2013-01-21 19:12:00,
2013-01-21 14:17:00,31.5,9.9,29.78,SSW,206,2.3,2.3,40,0.00,OVC,,0.00,137.0,WeatherDisplay:10.37,2013-01-21 19:17:00,
2013-01-21 14:22:00,31.5,9.9,29.78,SW,236,1.1,0.0,40,0.00,OVC,,0.00,141.0,WeatherDisplay:10.37,2013-01-21 19:22:00,
2013-01-21 14:27:00,31.3,9.7,29.78,SW,236,2.3,2.3,40,0.00,OVC,,0.00,120.0,WeatherDisplay:10.37,2013-01-21 19:27:00,
2013-01-21 14:32:00,31.3,10.3,29.78,SW,215,1.1,0.0,41,0.00,OVC,,0.00,123.0,WeatherDisplay:10.37,2013-01-21 19:32:00,
2013-01-21 14:37:00,31.3,9.7,29.78,SW,215,1.1,1.1,40,0.00,OVC,,0.00,111.0,WeatherDisplay:10.37,2013-01-21 19:37:00,
2013-01-21 14:42:00,31.5,10.5,29.78,SW,229,0.0,0.0,41,0.00,OVC,,0.00,118.0,WeatherDisplay:10.37,2013-01-21 19:42:00,
2013-01-21 14:47:00,31.6,10.0,29.76,SW,227,1.1,1.1,40,0.00,OVC,,0.00,104.0,WeatherDisplay:10.37,2013-01-21 19:47:00,
2013-01-21 14:52:00,31.8,10.7,29.76,SW,227,1.1,1.1,41,0.00,OVC,,0.00,90.0,WeatherDisplay:10.37,2013-01-21 19:52:00,
2013-01-21 14:57:00,31.8,10.7,29.76,SW,227,1.1,1.1,41,0.00,OVC,,0.00,81.0,WeatherDisplay:10.37,2013-01-21 19:57:00,
2013-01-21 15:02:00,31.6,10.6,29.75,SW,227,1.1,0.0,41,0.00,OVC,,0.00,84.0,WeatherDisplay:10.37,2013-01-21 20:02:00,
2013-01-21 15:07:00,31.8,11.3,29.75,SW,227,1.1,1.1,42,0.00,OVC,,0.00,83.0,WeatherDisplay:10.37,2013-01-21 20:07:00,
2013-01-21 15:12:00,31.8,10.7,29.75,SSW,210,1.1,1.1,41,0.00,OVC,,0.00,70.0,WeatherDisplay:10.37,2013-01-21 20:12:00,
2013-01-21 15:17:00,31.6,11.1,29.75,SSW,210,1.1,1.1,42,0.00,OVC,,0.00,63.0,WeatherDisplay:10.37,2013-01-21 20:17:00,
2013-01-21 15:22:00,31.8,11.3,29.75,SSW,210,1.1,0.0,42,0.00,OVC,,0.00,58.0,WeatherDisplay:10.37,2013-01-21 20:22:00,
2013-01-21 15:27:00,31.9,11.4,29.75,SW,216,1.1,1.1,42,0.00,OVC,,0.00,62.0,WeatherDisplay:10.37,2013-01-21 20:27:00,
2013-01-21 15:32:00,31.8,11.3,29.73,South,181,2.3,2.3,42,0.00,OVC,,0.00,48.0,WeatherDisplay:10.37,2013-01-21 20:32:00,
2013-01-21 15:37:00,31.8,11.3,29.73,South,181,0.0,0.0,42,0.00,OVC,,0.00,53.0,WeatherDisplay:10.37,2013-01-21 20:37:00,
2013-01-21 15:42:00,31.8,11.8,29.73,South,181,0.0,0.0,43,0.00,OVC,,0.00,77.0,WeatherDisplay:10.37,2013-01-21 20:42:00,
2013-01-21 15:47:00,31.9,11.4,29.73,South,181,1.1,1.1,42,0.00,OVC,,0.00,84.0,WeatherDisplay:10.37,2013-01-21 20:47:00,
2013-01-21 15:52:00,32.1,12.1,29.73,South,181,1.1,0.0,43,0.00,OVC,,0.00,109.0,WeatherDisplay:10.37,2013-01-21 20:52:00,
2013-01-21 15:57:00,32.2,12.2,29.73,South,181,0.0,0.0,43,0.00,OVC,,0.00,60.0,WeatherDisplay:10.37,2013-01-21 20:57:00,
2013-01-21 16:02:00,32.4,12.4,29.72,South,181,1.1,1.1,43,0.00,BKN,,0.00,76.0,WeatherDisplay:10.37,2013-01-21 21:02:00,
2013-01-21 16:07:00,32.5,12.5,29.72,South,188,1.1,0.0,43,0.00,BKN,,0.00,53.0,WeatherDisplay:10.37,2013-01-21 21:07:00,
2013-01-21 16:12:00,32.5,12.5,29.72,SW,220,1.1,1.1,43,0.00,BKN,,0.00,53.0,WeatherDisplay:10.37,2013-01-21 21:12:00,
2013-01-21 16:17:00,32.5,12.5,29.72,SW,227,1.1,1.1,43,0.00,BKN,,0.00,46.0,WeatherDisplay:10.37,2013-01-21 21:17:00,
2013-01-21 16:22:00,32.7,12.6,29.72,SW,227,1.1,0.0,43,0.00,BKN,,0.00,51.0,WeatherDisplay:10.37,2013-01-21 21:22:00,
2013-01-21 16:27:00,32.7,12.6,29.72,SW,227,1.1,1.1,43,0.00,BKN,,0.00,53.0,WeatherDisplay:10.37,2013-01-21 21:27:00,
2013-01-21 16:32:00,32.8,12.7,29.71,SW,227,1.1,0.0,43,0.00,BKN,,0.00,42.0,WeatherDisplay:10.37,2013-01-21 21:32:00,
2013-01-21 16:37:00,32.9,12.8,29.71,SW,227,0.0,0.0,43,0.00,BKN,,0.00,35.0,WeatherDisplay:10.37,2013-01-21 21:37:00,
2013-01-21 16:42:00,32.9,12.8,29.71,SW,227,0.0,0.0,43,0.00,BKN,,0.00,30.0,WeatherDisplay:10.37,2013-01-21 21:42:00,
2013-01-21 16:47:00,33.1,13.5,29.71,SW,227,0.0,0.0,44,0.00,BKN,,0.00,25.0,WeatherDisplay:10.37,2013-01-21 21:47:00,
2013-01-21 16:52:00,33.1,13.0,29.71,WSW,247,0.0,0.0,43,0.00,BKN,,0.00,21.0,WeatherDisplay:10.37,2013-01-21 21:52:00,
2013-01-21 16:57:00,33.1,13.5,29.71,WSW,247,0.0,0.0,44,0.00,BKN,,0.00,11.0,WeatherDisplay:10.37,2013-01-21 21:57:00,
2013-01-21 17:02:00,33.1,13.5,29.71,WSW,247,0.0,0.0,44,0.00,BKN,,0.00,7.0,WeatherDisplay:10.37,2013-01-21 22:02:00,
2013-01-21 17:07:00,33.1,13.5,29.71,WSW,247,0.0,0.0,44,0.00,BKN,,0.00,0.0,WeatherDisplay:10.37,2013-01-21 22:07:00,
2013-01-21 17:12:00,32.9,13.9,29.71,WSW,247,0.0,0.0,45,0.00,BKN,,0.00,0.0,WeatherDisplay:10.37,2013-01-21 22:12:00,
2013-01-21 17:17:00,32.9,13.9,29.72,WSW,247,1.1,1.1,45,0.00,BKN,,0.00,0.0,WeatherDisplay:10.37,2013-01-21 22:17:00,
2013-01-21 17:22:00,32.9,13.9,29.72,North,350,1.1,1.1,45,0.00,BKN,,0.00,0.0,WeatherDisplay:10.37,2013-01-21 22:22:00,
2013-01-21 17:27:00,32.8,13.8,29.72,North,350,1.1,0.0,45,0.00,BKN,,0.00,0.0,WeatherDisplay:10.37,2013-01-21 22:27:00,
2013-01-21 17:32:00,32.7,13.7,29.72,North,350,0.0,0.0,45,0.00,BKN,,0.00,0.0,WeatherDisplay:10.37,2013-01-21 22:32:00,
2013-01-21 17:37:00,32.7,13.7,29.72,NW,320,1.1,0.0,45,0.00,BKN,,0.00,0.0,WeatherDisplay:10.37,2013-01-21 22:37:00,
2013-01-21 17:42:00,32.7,14.2,29.72,WNW,301,0.0,0.0,46,0.00,BKN,,0.00,0.0,WeatherDisplay:10.37,2013-01-21 22:42:00,
2013-01-21 17:47:00,32.7,13.7,29.72,NNW,343,1.1,1.1,45,0.00,BKN,,0.00,0.0,WeatherDisplay:10.37,2013-01-21 22:47:00,
2013-01-21 17:52:00,32.5,14.0,29.72,NNW,343,0.0,0.0,46,0.00,BKN,,0.00,0.0,WeatherDisplay:10.37,2013-01-21 22:52:00,
2013-01-21 17:57:00,32.5,13.5,29.72,NW,326,3.5,3.5,45,0.00,BKN,,0.00,0.0,WeatherDisplay:10.37,2013-01-21 22:57:00,
2013-01-21 18:02:00,32.4,13.4,29.71,NNW,332,1.1,0.0,45,0.00,BKN,,0.00,0.0,WeatherDisplay:10.37,2013-01-21 23:02:00,
2013-01-21 18:07:00,32.4,13.4,29.71,NW,320,3.5,3.5,45,0.00,BKN,,0.00,0.0,WeatherDisplay:10.37,2013-01-21 23:07:00,
2013-01-21 18:12:00,32.4,12.9,29.71,NW,320,1.1,1.1,44,0.00,BKN,,0.00,0.0,WeatherDisplay:10.37,2013-01-21 23:12:00,
2013-01-21 18:17:00,32.2,13.2,29.71,NW,318,1.1,1.1,45,0.00,OVC,,0.00,0.0,WeatherDisplay:10.37,2013-01-21 23:17:00,
2013-01-21 18:22:00,32.1,13.1,29.71,North,353,1.1,1.1,45,0.00,OVC,,0.00,0.0,WeatherDisplay:10.37,2013-01-21 23:22:00,
2013-01-21 18:27:00,32.1,13.1,29.71,NNW,344,4.6,4.6,45,0.00,OVC,,0.00,0.0,WeatherDisplay:10.37,2013-01-21 23:27:00,
2013-01-21 18:32:00,31.9,12.9,29.72,North,353,4.6,4.6,45,0.00,OVC,,0.00,0.0,WeatherDisplay:10.37,2013-01-21 23:32:00,
2013-01-21 18:37:00,31.8,15.7,29.72,NNW,336,2.3,2.3,51,0.00,OVC,,0.00,0.0,WeatherDisplay:10.37,2013-01-21 23:37:00,
2013-01-21 18:42:00,31.6,18.1,29.72,NNW,337,6.0,6.0,57,0.00,OVC,,0.00,0.0,WeatherDisplay:10.37,2013-01-21 23:42:00,
2013-01-21 18:47:00,31.3,19.0,29.72,North,350,2.3,2.3,60,0.00,OVC,,0.00,0.0,WeatherDisplay:10.37,2013-01-21 23:47:00,
2013-01-21 18:52:00,30.9,19.8,29.72,NW,304,3.5,3.5,63,0.00,OVC,,0.00,0.0,WeatherDisplay:10.37,2013-01-21 23:52:00,
2013-01-21 18:57:00,30.7,20.7,29.72,North,349,5.0,5.0,66,0.00,OVC,,0.00,0.0,WeatherDisplay:10.37,2013-01-21 23:57:00,
2013-01-21 19:02:00,30.4,21.8,29.73,North,357,6.9,6.9,70,0.00,OVC,,0.00,0.0,WeatherDisplay:10.37,2013-01-22 00:02:00,
2013-01-21 19:07:00,30.0,22.4,29.73,North,349,4.6,4.6,73,0.00,OVC,,0.00,0.0,WeatherDisplay:10.37,2013-01-22 00:07:00,
2013-01-21 19:12:00,29.5,23.2,29.73,WNW,288,2.3,2.3,77,0.00,OVC,,0.00,0.0,WeatherDisplay:10.37,2013-01-22 00:12:00,
2013-01-21 19:17:00,29.3,23.3,29.73,North,353,1.1,1.1,78,0.00,-SN,,0.00,0.0,WeatherDisplay:10.37,2013-01-22 00:17:00,
2013-01-21 19:22:00,29.0,23.3,29.73,NNW,340,1.1,1.1,79,0.00,-SN,,0.00,0.0,WeatherDisplay:10.37,2013-01-22 00:22:00,
2013-01-21 19:27:00,28.7,23.6,29.73,North,356,4.6,4.6,81,0.00,-SN,,0.00,0.0,WeatherDisplay:10.37,2013-01-22 00:27:00,
2013-01-21 19:32:00,28.4,23.6,29.73,West,265,1.1,0.0,82,0.00,-SN,,0.00,0.0,WeatherDisplay:10.37,2013-01-22 00:32:00,
2013-01-21 19:37:00,28.2,23.7,29.73,NW,308,3.5,3.5,83,0.00,-SN,,0.00,0.0,WeatherDisplay:10.37,2013-01-22 00:37:00,
2013-01-21 19:42:00,28.1,23.9,29.73,North,356,3.5,3.5,84,0.00,-SN,,0.00,0.0,WeatherDisplay:10.37,2013-01-22 00:42:00,
2013-01-21 19:47:00,27.9,24.0,29.73,NNW,343,1.1,1.1,85,0.00,-SN,,0.00,0.0,WeatherDisplay:10.37,2013-01-22 00:47:00,
2013-01-21 19:52:00,27.9,24.0,29.73,WNW,301,2.3,2.3,85,0.00,-SN,,0.00,0.0,WeatherDisplay:10.37,2013-01-22 00:52:00,
2013-01-21 19:57:00,27.9,24.3,29.73,West,278,3.5,3.5,86,0.00,-SN,,0.00,0.0,WeatherDisplay:10.37,2013-01-22 00:57:00,
2013-01-21 20:02:00,27.9,24.3,29.75,NNW,329,4.6,4.6,86,0.00, +SN,,0.00,0.0,WeatherDisplay:10.37,2013-01-22 01:02:00,
2013-01-21 20:07:00,27.9,24.3,29.75,North,352,1.1,0.0,86,0.00, +SN,,0.00,0.0,WeatherDisplay:10.37,2013-01-22 01:07:00,
2013-01-21 20:12:00,27.9,24.3,29.75,WNW,291,2.3,2.3,86,0.00, +SN,,0.00,0.0,WeatherDisplay:10.37,2013-01-22 01:12:00,
2013-01-21 20:17:00,27.9,24.3,29.74,WNW,296,3.5,3.5,86,0.00,-SN,,0.00,0.0,WeatherDisplay:10.37,2013-01-22 01:17:00,
2013-01-21 20:22:00,27.9,24.3,29.74,NW,323,3.5,3.5,86,0.00,-SN,,0.00,0.0,WeatherDisplay:10.37,2013-01-22 01:22:00,
2013-01-21 20:27:00,27.8,23.6,29.74,North,359,5.8,5.8,84,0.00,-SN,,0.00,0.0,WeatherDisplay:10.37,2013-01-22 01:27:00,
2013-01-21 20:32:00,27.8,23.3,29.73,NNW,337,3.5,3.5,83,0.00,-SN,,0.00,0.0,WeatherDisplay:10.37,2013-01-22 01:32:00,
2013-01-21 20:37:00,27.8,23.0,29.73,NW,316,2.3,2.3,82,0.00,-SN,,0.00,0.0,WeatherDisplay:10.37,2013-01-22 01:37:00,
2013-01-21 20:42:00,27.8,22.7,29.73,North,349,5.8,5.8,81,0.00,-SN,,0.00,0.0,WeatherDisplay:10.37,2013-01-22 01:42:00,
2013-01-21 20:47:00,27.6,22.5,29.73,West,264,2.3,2.3,81,0.00,-SN,,0.00,0.0,WeatherDisplay:10.37,2013-01-22 01:47:00,
2013-01-21 20:52:00,27.6,22.5,29.73,WNW,299,3.5,3.5,81,0.00,-SN,,0.00,0.0,WeatherDisplay:10.37,2013-01-22 01:52:00,
2013-01-21 20:57:00,27.6,22.5,29.73,NNW,335,1.1,1.1,81,0.00,-SN,,0.00,0.0,WeatherDisplay:10.37,2013-01-22 01:57:00,
2013-01-21 21:02:00,27.6,22.2,29.73,NNW,330,1.1,0.0,80,0.00,OVC,,0.00,0.0,WeatherDisplay:10.37,2013-01-22 02:02:00,
2013-01-21 21:07:00,27.6,22.2,29.73,NNW,332,1.1,0.0,80,0.00,OVC,,0.00,0.0,WeatherDisplay:10.37,2013-01-22 02:07:00,
2013-01-21 21:12:00,27.5,21.8,29.73,NNW,332,1.1,1.1,79,0.00,OVC,,0.00,0.0,WeatherDisplay:10.37,2013-01-22 02:12:00,
2013-01-21 21:17:00,27.5,21.5,29.73,NNW,332,0.0,0.0,78,0.00,-SN,,0.00,0.0,WeatherDisplay:10.37,2013-01-22 02:17:00,
2013-01-21 21:22:00,27.3,21.3,29.73,NNW,332,1.1,0.0,78,0.00,-SN,,0.00,0.0,WeatherDisplay:10.37,2013-01-22 02:22:00,
2013-01-21 21:27:00,27.3,21.0,29.73,NNW,332,1.1,1.1,77,0.00,-SN,,0.00,0.0,WeatherDisplay:10.37,2013-01-22 02:27:00,
2013-01-21 21:32:00,27.3,20.4,29.72,WNW,294,1.1,1.1,75,0.00,-SN,,0.00,0.0,WeatherDisplay:10.37,2013-01-22 02:32:00,
2013-01-21 21:37:00,27.3,20.1,29.72,NW,320,1.1,1.1,74,0.00,-SN,,0.00,0.0,WeatherDisplay:10.37,2013-01-22 02:37:00,
2013-01-21 21:42:00,27.3,19.5,29.72,West,280,2.3,2.3,72,0.00,-SN,,0.00,0.0,WeatherDisplay:10.37,2013-01-22 02:42:00,
2013-01-21 21:47:00,27.3,19.1,29.72,NW,320,3.5,3.5,71,0.00,-SN,,0.00,0.0,WeatherDisplay:10.37,2013-01-22 02:47:00,
2013-01-21 21:52:00,27.3,19.1,29.72,NW,313,1.1,1.1,71,0.00,-SN,,0.00,0.0,WeatherDisplay:10.37,2013-01-22 02:52:00,
2013-01-21 21:57:00,27.3,19.1,29.72,North,0,3.5,3.5,71,0.00,-SN,,0.00,0.0,WeatherDisplay:10.37,2013-01-22 02:57:00,
2013-01-21 22:02:00,27.3,19.1,29.72,North,0,1.1,0.0,71,0.00,BKN,,0.00,0.0,WeatherDisplay:10.37,2013-01-22 03:02:00,
2013-01-21 22:07:00,27.3,19.1,29.72,NNE,28,5.8,5.8,71,0.00,BKN,,0.00,0.0,WeatherDisplay:10.37,2013-01-22 03:07:00,
2013-01-21 22:12:00,27.2,19.0,29.72,West,280,5.8,5.8,71,0.00,BKN,,0.00,0.0,WeatherDisplay:10.37,2013-01-22 03:12:00,
2013-01-21 22:17:00,27.2,19.4,29.72,West,267,10.4,10.4,72,0.00,BKN,,0.00,0.0,WeatherDisplay:10.37,2013-01-22 03:17:00,
2013-01-21 22:22:00,27.0,19.2,29.72,North,354,11.5,11.5,72,0.00,BKN,,0.00,0.0,WeatherDisplay:10.37,2013-01-22 03:22:00,
2013-01-21 22:27:00,26.9,18.7,29.72,West,278,5.0,5.0,71,0.00,BKN,,0.00,0.0,WeatherDisplay:10.37,2013-01-22 03:27:00,
2013-01-21 22:32:00,26.7,18.6,29.72,WNW,296,1.1,0.0,71,0.00,BKN,,0.00,0.0,WeatherDisplay:10.37,2013-01-22 03:32:00,
2013-01-21 22:37:00,26.6,17.1,29.72,WNW,299,6.9,6.9,67,0.00,BKN,,0.00,0.0,WeatherDisplay:10.37,2013-01-22 03:37:00,
2013-01-21 22:42:00,26.4,16.2,29.72,West,275,4.6,4.6,65,0.00,BKN,,0.00,0.0,WeatherDisplay:10.37,2013-01-22 03:42:00,
2013-01-21 22:47:00,26.3,15.8,29.73,WNW,296,1.1,1.1,64,0.00,BKN,,0.00,0.0,WeatherDisplay:10.37,2013-01-22 03:47:00,
2013-01-21 22:52:00,26.3,15.0,29.73,West,265,8.1,8.1,62,0.00,BKN,,0.00,0.0,WeatherDisplay:10.37,2013-01-22 03:52:00,
2013-01-21 22:57:00,26.1,14.1,29.73,NW,319,3.5,3.5,60,0.00,BKN,,0.00,0.0,WeatherDisplay:10.37,2013-01-22 03:57:00,
2013-01-21 23:02:00,26.0,12.8,29.73,NW,308,5.8,5.8,57,0.00,BKN,,0.00,0.0,WeatherDisplay:10.37,2013-01-22 04:02:00,
2013-01-21 23:07:00,25.8,12.2,29.73,NW,323,8.0,8.0,56,0.00,BKN,,0.00,0.0,WeatherDisplay:10.37,2013-01-22 04:07:00,
2013-01-21 23:12:00,25.7,11.7,29.73,NNW,346,5.8,5.8,55,0.00,BKN,,0.00,0.0,WeatherDisplay:10.37,2013-01-22 04:12:00,
2013-01-21 23:17:00,25.6,11.2,29.73,NNW,328,7.0,7.0,54,0.00,SCT,,0.00,0.0,WeatherDisplay:10.37,2013-01-22 04:17:00,
2013-01-21 23:22:00,25.4,11.0,29.73,WNW,289,10.4,10.4,54,0.00,SCT,,0.00,0.0,WeatherDisplay:10.37,2013-01-22 04:22:00,
2013-01-21 23:27:00,25.4,10.6,29.73,NW,306,13.0,13.0,53,0.00,SCT,,0.00,0.0,WeatherDisplay:10.37,2013-01-22 04:27:00,
2013-01-21 23:32:00,25.3,10.1,29.73,West,260,8.1,8.1,52,0.00,SCT,,0.00,0.0,WeatherDisplay:10.37,2013-01-22 04:32:00,
2013-01-21 23:37:00,25.1,10.3,29.73,West,281,8.0,8.0,53,0.00,SCT,,0.00,0.0,WeatherDisplay:10.37,2013-01-22 04:37:00,
2013-01-21 23:42:00,25.1,9.9,29.73,WNW,292,2.3,2.3,52,0.00,SCT,,0.00,0.0,WeatherDisplay:10.37,2013-01-22 04:42:00,
2013-01-21 23:47:00,25.0,9.0,29.73,North,0,11.5,11.5,50,0.00,SCT,,0.00,0.0,WeatherDisplay:10.37,2013-01-22 04:47:00,
2013-01-21 23:52:00,25.0,9.0,29.73,WNW,299,6.9,6.9,50,0.00,SCT,,0.00,0.0,WeatherDisplay:10.37,2013-01-22 04:52:00,
2013-01-21 23:57:00,24.8,8.3,29.73,NNW,328,3.5,3.5,49,0.00,SCT,,0.00,0.0,WeatherDisplay:10.37,2013-01-22 04:57:00,